{"data":{"norad_id":57188,"epoch":"2026-09-21T22:24:54.250272Z","epoch_age_seconds":81208,"freshness":"FRESH","line1":"1 57188U 23091Y   26264.93396123  .00006063  00000+0  22336-3 0  9993","line2":"2 57188  97.4972 329.0830 0010015 109.0565 251.1760 15.28161820179088","mean_motion":15.2816182,"eccentricity":0.0010015,"inclination_deg":97.4972,"raan_deg":329.083,"arg_perigee_deg":109.0565,"mean_anomaly_deg":251.176,"bstar":0.00022336,"rev_number":17908,"period_min":94.230858352422,"perigee_km":474.43773678971,"apogee_km":488.17720406398,"semimajor_km":6859.4444704268,"source":"CELESTRAK","updated_at":"2026-09-22T09:00:26.078283Z"}}